Weather in Starovercheskiy

Russia / Kirov Oblast     59°37′35″N   48°37′16″E
temp.,
°C
wind,
m/s
gust,
m/s
humid.,
%
clouds,
%
prec.,
mm/h
press.,
hPa
HPBL,
m
9 march, tue
tue900:00−16n389799 0.1 1004284
03:00−19n389799 0.1 1007308
06:00−21n3798100 0.1 1009257
09:00−21nne369798 0.1 1012278
12:00−17nne359495 0.0 1013425
15:00−17n369297 0.1 1014603
18:00−21n3897100 0.1 1016231
21:00−25nne399999 0.1 1019235
10 march, wed
wed1000:00−28nne3610068 0.0 1020102
03:00−30n249950 0.0 102173
06:00−31n239914 0.0 102250
09:00−25n249714 0.0 1022225
12:00−18nnw259449 0.0 1021422
15:00−17nw369174 0.1 1020662
18:00−21nw2598100 0.0 1021126
21:00−22wnw389891 0.1 1020199
11 march, thu
thu1100:00−18nw3996100 0.1 1019495
03:00−15wnw41095100 0.6 1018548
06:00−12nw51292100 0.4 1018719
09:00−11nw51093100 0.6 1019602
12:00−8nw51086100 0.1 1019732
15:00−7nw5108279 0.1 1019937
18:00−11wnw4128813 0.0 1020508
21:00−13wnw4138923 0.0 1022462
12 march, fri
fri1200:00−14wnw4119197 0.0 1022420
03:00−15w4128998 0.0 1022357
06:00−14w41192100 0.0 1022385
09:00−12w51187100 0.0 1022532
12:00−9w5118388 0.0 1022659
15:00−7wsw5108472 0.0 1021663
18:00−11wsw4119021 0.0 1022408
21:00−13wsw4129212 0.0 1024391
13 march, sat
sat1300:00−15sw411940 0.0 1024316
03:00−17sw412940 0.0 1025288
06:00−18sw412920 0.0 1025287
09:00−13ssw511870 0.0 1024395
12:00−7ssw512830 0.0 1023667
15:00−6ssw612840 0.0 1022805
18:00−9ssw513880 0.0 1021643
21:00−11ssw5149231 0.0 1021570